Location: *
(51.4660°N, 0.3360°W)
Time: 19:40:11
(UTC+00:00)

Cosmos 1420 Rocket - Pass Details

Date: 19 September 2019
Orbit: 754 x 781 km, 74.0° (Epoch: 16 October)

Event Time Altitude Azimuth Distance (km) Brightness Sun altitude
Exits shadow 21:06:38 41° 216° (SW) 1,118 4.7 -26.3°
Maximum altitude 21:08:32 79° 295° (WNW) 802 4.0 -26.6°
Drops below altitude 10° 21:13:53 10° 23° (NNE) 2,349 6.7 -27.2°
Sets 21:16:18 0° 25° (NNE) 3,281 7.5 -27.5°
